West Chester Brandywine Airpo, PA

12:06 AM EST on December 10, 2019 (GMT -0500)
West Chester Brandywine Airpo

Weather History for KOQN - November, 2019

Change the Weather History Date:

Tuesday, November 12, 2019

  Actual Average (KPHL) Record (KPHL)
Temperature  
Mean Temperature 40 °F -  
Max Temperature 55 °F 54 °F 75 °F (1879)
Min Temperature 26 °F 39 °F 26 °F (1960)
Degree Days  
Heating Degree Days 24    
Moisture  
Dew Point 27 °F    
Average Humidity 62    
Maximum Humidity 87    
Minimum Humidity 29    
Precipitation  
Precipitation 0.08 in - - ()
Sea Level Pressure  
Sea Level Pressure 29.95 in    
Wind  
Wind Speed 8 mph (WNW)    
Max Wind Speed 18 mph    
Max Gust Speed 29 mph    
Visibility 10 miles    
Events Rain    
Averages and records for this station are not official NWS values.
T = Trace of Precipitation, MM = Missing Value Source: NWS Daily Summary

Daily Weather History Graph

Daily Weather History Graph

Search for Another Location

Airport or City:

Astronomy

Nov. 12, 2019 Rise Set
Actual Time 6:43 AM EST 4:48 PM EST
Civil Twilight 6:14 AM EST 5:17 PM EST
Nautical Twilight 5:42 AM EST 5:50 PM EST
Astronomical Twilight 5:10 AM EST 6:21 PM EST
Moon 5:14 PM EST (11/12) 6:32 AM EST (11/12)
Length of Visible Light 11h 02m
Length of Day
10h 04m
Full, 100% of the Moon is Illuminated
Nov 12
Full
Nov 19
Last Quarter
Nov 26
New
Dec 4
First Quarter
Dec 12
Full

Hourly Weather History & Observations

Time (EST) Temp. Windchill Dew Point Humidity Pressure Visibility Wind Dir Wind Speed Gust Speed Precip Events Conditions
12:15 AM 55.4 °F - 42.8 °F 63% 29.77 in 10.0 mi SSW 3.5 mph - N/A   Unknown
12:35 AM 55.4 °F - 42.8 °F 63% 29.76 in 10.0 mi SSW 3.5 mph - N/A   Unknown
12:55 AM 55.4 °F - 42.8 °F 63% 29.76 in 10.0 mi Calm Calm - N/A   Unknown
1:15 AM 55.4 °F - 42.8 °F 63% 29.76 in 10.0 mi SSW 3.5 mph - N/A   Unknown
1:35 AM 55.4 °F - 42.8 °F 63% 29.74 in 10.0 mi SSW 3.5 mph - N/A   Unknown
1:55 AM 55.4 °F - 42.8 °F 63% 29.75 in 10.0 mi SSW 4.6 mph - N/A   Unknown
2:15 AM 55.4 °F - 42.8 °F 63% 29.74 in 10.0 mi SW 3.5 mph - N/A   Unknown
2:35 AM 55.4 °F - 42.8 °F 63% 29.72 in 10.0 mi Calm Calm - N/A   Unknown
2:55 AM 55.4 °F - 41.0 °F 58% 29.70 in 10.0 mi Calm Calm - N/A   Unknown
3:15 AM 55.4 °F - 41.0 °F 58% 29.72 in 10.0 mi SW 6.9 mph - N/A   Unknown
3:35 AM 55.4 °F - 41.0 °F 58% 29.73 in 10.0 mi SW 5.8 mph - N/A   Unknown
3:55 AM 55.4 °F - 41.0 °F 58% 29.72 in 10.0 mi WSW 6.9 mph - N/A   Unknown
4:15 AM 55.4 °F - 41.0 °F 58% 29.73 in 10.0 mi SW 6.9 mph - N/A   Unknown
4:35 AM 55.4 °F - 41.0 °F 58% 29.73 in 10.0 mi SW 4.6 mph - N/A   Unknown
4:55 AM 53.6 °F - 42.8 °F 67% 29.75 in 10.0 mi WSW 4.6 mph - N/A Rain Light Rain
5:15 AM 51.8 °F - 44.6 °F 76% 29.74 in 10.0 mi SW 5.8 mph - 0.01 in Rain Light Rain
5:35 AM 50.0 °F - 44.6 °F 82% 29.75 in 10.0 mi WSW 4.6 mph - 0.01 in Rain Rain
5:55 AM 50.0 °F - 46.4 °F 87% 29.76 in 7.0 mi WSW 6.9 mph - 0.03 in Rain Light Rain
6:15 AM 50.0 °F - 46.4 °F 87% 29.76 in 7.0 mi WSW 6.9 mph - 0.01 in Rain Light Rain
6:35 AM 50.0 °F - 46.4 °F 87% 29.77 in 10.0 mi WSW 8.1 mph - 0.03 in Rain Light Rain
7:15 AM 50.0 °F - 46.4 °F 87% 29.78 in 7.0 mi West 9.2 mph - 0.01 in Rain Light Rain
7:35 AM 42.8 °F 35.1 °F 39.2 °F 87% 29.82 in 10.0 mi WNW 16.1 mph 28.8 mph 0.02 in Rain Light Rain
7:55 AM 41.0 °F 33.1 °F 37.4 °F 87% 29.84 in 10.0 mi WNW 15.0 mph 21.9 mph 0.02 in Rain Light Rain
8:15 AM 41.0 °F 34.3 °F 35.6 °F 81% 29.85 in 10.0 mi WNW 11.5 mph 18.4 mph N/A   Light Drizzle
8:35 AM 41.0 °F 34.7 °F 35.6 °F 81% 29.85 in 10.0 mi WNW 10.4 mph 17.3 mph N/A   Unknown
8:55 AM 39.2 °F 32.0 °F 35.6 °F 87% 29.87 in 10.0 mi WNW 11.5 mph 20.7 mph N/A   Unknown
9:15 AM 39.2 °F 31.6 °F 33.8 °F 81% 29.88 in 10.0 mi WNW 12.7 mph 18.4 mph N/A Rain Light Rain
9:35 AM 37.4 °F 29.3 °F 32.0 °F 81% 29.90 in 10.0 mi WNW 12.7 mph 20.7 mph N/A   Unknown
9:55 AM 37.4 °F 27.5 °F 32.0 °F 81% 29.91 in 10.0 mi WNW 18.4 mph 26.5 mph N/A   Unknown
10:15 AM 35.6 °F 27.1 °F 30.2 °F 81% 29.94 in 10.0 mi NW 12.7 mph 23.0 mph N/A   Unknown
10:35 AM 35.6 °F 25.5 °F 30.2 °F 81% 29.94 in 10.0 mi WNW 17.3 mph 24.2 mph N/A   Unknown
10:55 AM 35.6 °F 26.2 °F 28.4 °F 75% 29.95 in 10.0 mi NW 15.0 mph 24.2 mph N/A   Unknown
11:15 AM 33.8 °F 25.8 °F 28.4 °F 81% 29.96 in 10.0 mi WNW 10.4 mph 17.3 mph N/A   Unknown
11:35 AM 33.8 °F 24.3 °F 26.6 °F 75% 29.97 in 10.0 mi NW 13.8 mph 20.7 mph N/A   Unknown
11:55 AM 33.8 °F 25.8 °F 26.6 °F 75% 29.96 in 10.0 mi NW 10.4 mph 17.3 mph N/A   Unknown
12:15 PM 33.8 °F 27.7 °F 26.6 °F 75% 29.97 in 10.0 mi NW 6.9 mph 17.3 mph N/A   Unknown
12:35 PM 33.8 °F 27.0 °F 26.6 °F 75% 29.97 in 10.0 mi NW 8.1 mph 18.4 mph N/A   Unknown
12:55 PM 33.8 °F 24.8 °F 26.6 °F 75% 29.96 in 10.0 mi WNW 12.7 mph 17.3 mph N/A   Unknown
1:15 PM 33.8 °F 25.3 °F 26.6 °F 75% 29.96 in 10.0 mi WNW 11.5 mph 18.4 mph N/A   Unknown
1:35 PM 33.8 °F 23.5 °F 26.6 °F 75% 29.97 in 10.0 mi NW 16.1 mph 19.6 mph N/A   Unknown
1:55 PM 33.8 °F 24.3 °F 23.0 °F 65% 29.97 in 10.0 mi NW 13.8 mph 23.0 mph N/A   Unknown
2:15 PM 33.8 °F 23.5 °F 23.0 °F 65% 29.98 in 10.0 mi NW 16.1 mph 23.0 mph N/A   Unknown
2:35 PM 33.8 °F 25.3 °F 23.0 °F 65% 29.98 in 10.0 mi NNW 11.5 mph 21.9 mph N/A   Unknown
2:55 PM 33.8 °F 23.5 °F 21.2 °F 60% 29.99 in 10.0 mi NNW 16.1 mph 24.2 mph N/A   Unknown
3:15 PM 33.8 °F 25.8 °F 21.2 °F 60% 29.99 in 10.0 mi NNW 10.4 mph 19.6 mph N/A   Unknown
3:35 PM 33.8 °F 24.8 °F 19.4 °F 56% 30.00 in 10.0 mi NNW 12.7 mph 19.6 mph N/A   Unknown
3:55 PM 33.8 °F 27.0 °F 19.4 °F 56% 30.01 in 10.0 mi NNW 8.1 mph 18.4 mph N/A   Unknown
4:15 PM 33.8 °F 25.3 °F 19.4 °F 56% 30.02 in 10.0 mi NNW 11.5 mph 18.4 mph N/A   Unknown
4:35 PM 33.8 °F 25.8 °F 17.6 °F 52% 30.03 in 10.0 mi NNW 10.4 mph 21.9 mph N/A   Unknown
4:55 PM 32.0 °F 24.2 °F 17.6 °F 55% 30.04 in 10.0 mi NNW 9.2 mph 16.1 mph N/A   Unknown
5:15 PM 32.0 °F 23.0 °F 17.6 °F 55% 30.05 in 10.0 mi NNW 11.5 mph 19.6 mph N/A   Unknown
5:35 PM 32.0 °F 25.6 °F 17.6 °F 55% 30.06 in 10.0 mi NNW 6.9 mph - N/A   Unknown
5:55 PM 32.0 °F 26.4 °F 17.6 °F 55% 30.07 in 10.0 mi NNW 5.8 mph - N/A   Unknown
6:15 PM 32.0 °F 24.8 °F 19.4 °F 60% 30.08 in 10.0 mi NW 8.1 mph - N/A   Unknown
6:35 PM 32.0 °F 26.4 °F 17.6 °F 55% 30.09 in 10.0 mi NW 5.8 mph - N/A   Unknown
6:55 PM 32.0 °F 23.0 °F 17.6 °F 55% 30.11 in 10.0 mi North 11.5 mph - N/A   Unknown
7:15 PM 32.0 °F 24.2 °F 14.0 °F 48% 30.12 in 10.0 mi NNW 9.2 mph 20.7 mph N/A   Unknown
7:35 PM 32.0 °F 22.1 °F 12.2 °F 44% 30.12 in 10.0 mi NNW 13.8 mph 17.3 mph N/A   Unknown
7:55 PM 32.0 °F 22.1 °F 12.2 °F 44% 30.14 in 10.0 mi NNW 13.8 mph 19.6 mph N/A   Unknown
8:15 PM 30.2 °F 20.2 °F 10.4 °F 44% 30.15 in 10.0 mi NNW 12.7 mph 19.6 mph N/A   Unknown
8:35 PM 30.2 °F 20.8 °F 10.4 °F 44% 30.16 in 10.0 mi NNW 11.5 mph 20.7 mph N/A   Unknown
8:55 PM 30.2 °F 23.4 °F 10.4 °F 44% 30.17 in 10.0 mi NNW 6.9 mph - N/A   Unknown
9:15 PM 30.2 °F 21.3 °F 6.8 °F 37% 30.18 in 10.0 mi NNW 10.4 mph 19.6 mph N/A   Unknown
9:35 PM 28.4 °F 18.5 °F 3.2 °F 34% 30.19 in 10.0 mi NNW 11.5 mph 18.4 mph N/A   Unknown
9:55 PM 28.4 °F 19.1 °F 3.2 °F 34% 30.20 in 10.0 mi NNW 10.4 mph 16.1 mph N/A   Unknown
10:15 PM 28.4 °F 22.2 °F 3.2 °F 34% 30.20 in 10.0 mi NW 5.8 mph - N/A   Unknown
10:35 PM 28.4 °F 16.6 °F -0.4 °F 29% 30.21 in 10.0 mi NW 16.1 mph 23.0 mph N/A   Unknown
10:55 PM 26.6 °F 15.7 °F -2.2 °F 29% 30.21 in 10.0 mi NNW 12.7 mph 25.3 mph N/A   Unknown
11:15 PM 26.6 °F 14.7 °F -0.4 °F 31% 30.21 in 10.0 mi NNW 15.0 mph 25.3 mph N/A   Unknown
11:35 PM 26.6 °F 18.2 °F 1.4 °F 34% 30.22 in 10.0 mi NNW 8.1 mph 18.4 mph N/A   Unknown
11:55 PM 26.6 °F 18.2 °F 1.4 °F 34% 30.22 in 10.0 mi NNW 8.1 mph - N/A   Unknown